Location: Allaines
(49.9632°N, 2.9458°E)
Time: 21:43:17
(UTC+00:00)

X-37B - Pass Details

Date: 23 June 2021
Orbit: 383 x 392 km, 45.0° (Epoch: 01 July)

Event Time Altitude Azimuth Distance (km) Brightness Sun altitude
Rises 22:05:24 0° 238° (WSW) 2,251 4.4 -13.0°
Reaches altitude 10° 22:07:38 10° 225° (SW) 1,400 3.2 -13.1°
Enters shadow 22:10:00 25° 178° (S) 809 1.6 -13.3°
